Location: Hilton Head Island
(32.2163°N, 80.7526°W)
Time: 15:57:55
(UTC-05:00)

Explorer 11/Cluster Stage 4 - Pass Details

Date: 17 February 2026
Orbit: 463 x 1176 km, 28.8° (Epoch: 6 March)

Event Time Altitude Azimuth Distance (km) Brightness Sun altitude
Rises 15:17:49 0° 260° (W) 2,575 10.0 31.6°
Reaches altitude 10° 15:20:08 10° 255° (WSW) 1,642 9.4 31.2°
Maximum altitude 15:23:42 49° 180° (S) 599 6.9 30.7°
Drops below altitude 10° 15:27:11 10° 104° (ESE) 1,607 8.0 30.1°
Sets 15:29:25 0° 98° (E) 2,512 8.8 29.7°
